User: anonymous
Location: Walnut Point State Park
(39.6958°N, 88.0345°W)
Time: 05:10:13
(UTC-05:00)
Language:

Iridium 75 - Orbit

View from above orbital plane
View from above orbital plane
View from above satellite
View from above satellite

Ground track
Ground track

The orbit data is extracted from the following two-line orbital elements,

1 25346U 98032E   14105.77259045  .00000287  00000-0  95483-4 0  7798
2 25346 086.3985 348.3031 0002098 102.0836 299.9265 14.34210157833635
Epoch (UTC): 15 April 2014 18:32:31
Eccentricity: 0.0002098
inclination: 86.3985°
perigee height: 776 km
apogee height: 779 km
right ascension of ascending node: 348.3031°
argument of perigee: 102.0836°
revolutions per day: 14.34210157
mean anomaly at epoch: 299.9265°
orbit number at epoch: 83363

The dashed part of the orbit path shows where the satellite is in the earth's shadow,  

DLR